Year,Month,Day,Hour,Minute,Value (Times are PST for temperature in C)
2018,11,12,00,00,2.30
2018,11,12,00,01,2.30
2018,11,12,00,02,2.30
2018,11,12,00,03,2.30
2018,11,12,00,04,2.30
2018,11,12,00,05,2.20
2018,11,12,00,06,2.20
2018,11,12,00,07,2.20
2018,11,12,00,08,2.20
2018,11,12,00,09,2.20
2018,11,12,00,10,2.20
2018,11,12,00,11,2.20
2018,11,12,00,12,2.20
2018,11,12,00,13,2.30
2018,11,12,00,14,2.30
2018,11,12,00,15,2.30
2018,11,12,00,16,2.30
2018,11,12,00,17,2.40
2018,11,12,00,18,2.40
2018,11,12,00,19,2.40
2018,11,12,00,20,2.40
2018,11,12,00,21,2.40
2018,11,12,00,22,2.40
2018,11,12,00,23,2.40
2018,11,12,00,24,2.40
2018,11,12,00,25,2.30
2018,11,12,00,26,2.30
2018,11,12,00,27,2.30
2018,11,12,00,28,2.30
2018,11,12,00,29,2.30
2018,11,12,00,30,2.30
2018,11,12,00,31,2.30
2018,11,12,00,32,2.30
2018,11,12,00,33,2.40
2018,11,12,00,34,2.40
2018,11,12,00,35,2.40
2018,11,12,00,36,2.40
2018,11,12,00,37,2.40
2018,11,12,00,38,2.50
2018,11,12,00,39,2.50
2018,11,12,00,40,2.50
2018,11,12,00,41,2.40
2018,11,12,00,42,2.50
2018,11,12,00,43,2.50
2018,11,12,00,44,2.50
2018,11,12,00,45,2.50
2018,11,12,00,46,2.50
2018,11,12,00,47,2.50
2018,11,12,00,48,2.60
2018,11,12,00,49,2.70
2018,11,12,00,50,2.70
2018,11,12,00,51,2.80
2018,11,12,00,52,2.80
2018,11,12,00,53,2.90
2018,11,12,00,54,2.90
2018,11,12,00,55,3.00
2018,11,12,00,56,3.10
2018,11,12,00,57,3.10
2018,11,12,00,58,3.10
2018,11,12,00,59,3.10
2018,11,12,01,00,3.10
2018,11,12,01,01,3.10
2018,11,12,01,02,3.10
2018,11,12,01,03,3.10
2018,11,12,01,04,3.00
2018,11,12,01,05,3.00
2018,11,12,01,06,2.90
2018,11,12,01,07,2.90
2018,11,12,01,08,2.90
2018,11,12,01,09,2.90
2018,11,12,01,10,2.90
2018,11,12,01,11,3.00
2018,11,12,01,12,3.00
2018,11,12,01,13,3.10
2018,11,12,01,14,3.00
2018,11,12,01,15,3.00
2018,11,12,01,16,3.00
2018,11,12,01,17,3.00
2018,11,12,01,18,3.00
2018,11,12,01,19,3.00
2018,11,12,01,20,3.10
2018,11,12,01,21,3.10
2018,11,12,01,22,3.10
2018,11,12,01,23,3.10
2018,11,12,01,24,3.10
2018,11,12,01,25,3.10
2018,11,12,01,26,3.00
2018,11,12,01,27,3.00
2018,11,12,01,28,3.00
2018,11,12,01,29,3.00
2018,11,12,01,30,3.00
2018,11,12,01,31,2.90
2018,11,12,01,32,2.90
2018,11,12,01,33,2.90
2018,11,12,01,34,2.90
2018,11,12,01,35,2.90
2018,11,12,01,36,2.90
2018,11,12,01,37,2.90
2018,11,12,01,38,2.90
2018,11,12,01,39,2.90
2018,11,12,01,40,2.90
2018,11,12,01,41,2.90
2018,11,12,01,42,2.90
2018,11,12,01,43,2.80
2018,11,12,01,44,2.80
2018,11,12,01,45,2.80
2018,11,12,01,46,2.80
2018,11,12,01,47,2.80
2018,11,12,01,48,2.90
2018,11,12,01,49,2.90
2018,11,12,01,50,2.90
2018,11,12,01,51,3.00
2018,11,12,01,52,3.00
2018,11,12,01,53,3.10
2018,11,12,01,54,3.10
2018,11,12,01,55,3.10
2018,11,12,01,56,3.10
2018,11,12,01,57,3.10
2018,11,12,01,58,3.10
2018,11,12,01,59,3.10
2018,11,12,02,00,3.10
2018,11,12,02,01,3.10
2018,11,12,02,02,3.20
2018,11,12,02,03,3.20
2018,11,12,02,04,3.20
2018,11,12,02,05,3.20
2018,11,12,02,06,3.20
2018,11,12,02,07,3.20
2018,11,12,02,08,3.10
2018,11,12,02,09,3.10
2018,11,12,02,10,3.10
2018,11,12,02,11,3.10
2018,11,12,02,12,3.10
2018,11,12,02,13,3.10
2018,11,12,02,14,3.20
2018,11,12,02,15,3.20
2018,11,12,02,16,3.20
2018,11,12,02,17,3.20
2018,11,12,02,18,3.30
2018,11,12,02,19,3.30
2018,11,12,02,20,3.30
2018,11,12,02,21,3.30
2018,11,12,02,22,3.30
2018,11,12,02,23,3.30
2018,11,12,02,24,3.30
2018,11,12,02,25,3.30
2018,11,12,02,26,3.30
2018,11,12,02,27,3.30
2018,11,12,02,28,3.40
2018,11,12,02,29,3.40
2018,11,12,02,30,3.40
2018,11,12,02,31,3.40
2018,11,12,02,32,3.40
2018,11,12,02,33,3.40
2018,11,12,02,34,3.40
2018,11,12,02,35,3.50
2018,11,12,02,36,3.50
2018,11,12,02,37,3.50
2018,11,12,02,38,3.50
2018,11,12,02,39,3.50
2018,11,12,02,40,3.50
2018,11,12,02,41,3.50
2018,11,12,02,42,3.50
2018,11,12,02,43,3.50
2018,11,12,02,44,3.50
2018,11,12,02,45,3.50
2018,11,12,02,46,3.50
2018,11,12,02,47,3.50
2018,11,12,02,48,3.50
2018,11,12,02,49,3.50
2018,11,12,02,50,3.40
2018,11,12,02,51,3.40
2018,11,12,02,52,3.50
2018,11,12,02,53,3.40
2018,11,12,02,54,3.40
2018,11,12,02,55,3.40
2018,11,12,02,56,3.40
2018,11,12,02,57,3.40
2018,11,12,02,58,3.40
2018,11,12,02,59,3.40
2018,11,12,03,00,3.40
2018,11,12,03,01,3.40
2018,11,12,03,02,3.50
2018,11,12,03,03,3.50
2018,11,12,03,04,3.50
2018,11,12,03,05,3.50
2018,11,12,03,06,3.50
2018,11,12,03,07,3.50
2018,11,12,03,08,3.50
2018,11,12,03,09,3.50
2018,11,12,03,10,3.60
2018,11,12,03,11,3.60
2018,11,12,03,12,3.60
2018,11,12,03,13,3.60
2018,11,12,03,14,3.60
2018,11,12,03,15,3.60
2018,11,12,03,16,3.60
2018,11,12,03,17,3.60
2018,11,12,03,18,3.60
2018,11,12,03,19,3.60
2018,11,12,03,20,3.70
2018,11,12,03,21,3.70
2018,11,12,03,22,3.70
2018,11,12,03,23,3.70
2018,11,12,03,24,3.70
2018,11,12,03,25,3.80
2018,11,12,03,26,3.80
2018,11,12,03,27,3.80
2018,11,12,03,28,3.80
2018,11,12,03,29,3.80
2018,11,12,03,30,3.80
2018,11,12,03,31,3.80
2018,11,12,03,32,3.80
2018,11,12,03,33,3.90
2018,11,12,03,34,3.90
2018,11,12,03,35,3.90
2018,11,12,03,36,3.90
2018,11,12,03,37,3.90
2018,11,12,03,38,3.90
2018,11,12,03,39,3.90
2018,11,12,03,40,3.90
2018,11,12,03,41,3.90
2018,11,12,03,42,3.90
2018,11,12,03,43,3.90
2018,11,12,03,44,3.90
2018,11,12,03,45,3.90
2018,11,12,03,46,4.00
2018,11,12,03,47,4.00
2018,11,12,03,48,4.00
2018,11,12,03,49,4.00
2018,11,12,03,50,4.00
2018,11,12,03,51,4.00
2018,11,12,03,52,4.00
2018,11,12,03,53,4.00
2018,11,12,03,54,3.90
2018,11,12,03,55,3.90
2018,11,12,03,56,3.90
2018,11,12,03,57,3.90
2018,11,12,03,58,3.80
2018,11,12,03,59,3.80
2018,11,12,04,00,3.80
2018,11,12,04,01,3.80
2018,11,12,04,02,3.80
2018,11,12,04,03,3.80
2018,11,12,04,04,3.80
2018,11,12,04,05,3.80
2018,11,12,04,06,3.80
2018,11,12,04,07,3.70
2018,11,12,04,08,3.70
2018,11,12,04,09,3.70
2018,11,12,04,10,3.70
2018,11,12,04,11,3.60
2018,11,12,04,12,3.60
2018,11,12,04,13,3.60
2018,11,12,04,14,3.60
2018,11,12,04,15,3.60
2018,11,12,04,16,3.60
2018,11,12,04,17,3.60
2018,11,12,04,18,3.60
2018,11,12,04,19,3.60
2018,11,12,04,20,3.50
2018,11,12,04,21,3.50
2018,11,12,04,22,3.50
2018,11,12,04,23,3.50
2018,11,12,04,24,3.50
2018,11,12,04,25,3.60
2018,11,12,04,26,3.60
2018,11,12,04,27,3.60
2018,11,12,04,28,3.60
2018,11,12,04,29,3.60
2018,11,12,04,30,3.70
2018,11,12,04,31,3.70
2018,11,12,04,32,3.70
2018,11,12,04,33,3.80
2018,11,12,04,34,3.80
2018,11,12,04,35,3.80
2018,11,12,04,36,3.80
2018,11,12,04,37,3.80
2018,11,12,04,38,3.80
2018,11,12,04,39,3.80
2018,11,12,04,40,3.80
2018,11,12,04,41,3.70
2018,11,12,04,42,3.70
2018,11,12,04,43,3.70
2018,11,12,04,44,3.70
2018,11,12,04,45,3.70
2018,11,12,04,46,3.70
2018,11,12,04,47,3.70
2018,11,12,04,48,3.60
2018,11,12,04,49,3.60
2018,11,12,04,50,3.60
2018,11,12,04,51,3.60
2018,11,12,04,52,3.60
2018,11,12,04,53,3.60
2018,11,12,04,54,3.60
2018,11,12,04,55,3.60
2018,11,12,04,56,3.60
2018,11,12,04,57,3.60
2018,11,12,04,58,3.60
2018,11,12,04,59,3.60
2018,11,12,05,00,3.60
2018,11,12,05,01,3.60
2018,11,12,05,02,3.60
2018,11,12,05,03,3.60
2018,11,12,05,04,3.60
2018,11,12,05,05,3.60
2018,11,12,05,06,3.60
2018,11,12,05,07,3.60
2018,11,12,05,08,3.50
2018,11,12,05,09,3.50
2018,11,12,05,10,3.50
2018,11,12,05,11,3.50
2018,11,12,05,12,3.50
2018,11,12,05,13,3.50
2018,11,12,05,14,3.50
2018,11,12,05,15,3.50
2018,11,12,05,16,3.50
2018,11,12,05,17,3.40
2018,11,12,05,18,3.40
2018,11,12,05,19,3.40
2018,11,12,05,20,3.40
2018,11,12,05,21,3.40
2018,11,12,05,22,3.30
2018,11,12,05,23,3.30
2018,11,12,05,24,3.30
2018,11,12,05,25,3.30
2018,11,12,05,26,3.30
2018,11,12,05,27,3.30
2018,11,12,05,28,3.30
2018,11,12,05,29,3.30
2018,11,12,05,30,3.30
2018,11,12,05,31,3.30
2018,11,12,05,32,3.30
2018,11,12,05,33,3.30
2018,11,12,05,34,3.30
2018,11,12,05,35,3.30
2018,11,12,05,36,3.30
2018,11,12,05,37,3.30
2018,11,12,05,38,3.30
2018,11,12,05,39,3.30
2018,11,12,05,40,3.30
2018,11,12,05,41,3.20
2018,11,12,05,42,3.20
2018,11,12,05,43,3.20
2018,11,12,05,44,3.20
2018,11,12,05,45,3.20
2018,11,12,05,46,3.20
2018,11,12,05,47,3.10
2018,11,12,05,48,3.10
2018,11,12,05,49,3.10
2018,11,12,05,50,3.10
2018,11,12,05,51,3.10
2018,11,12,05,52,3.10
2018,11,12,05,53,3.10
2018,11,12,05,54,3.10
2018,11,12,05,55,3.10
2018,11,12,05,56,3.00
2018,11,12,05,57,3.00
2018,11,12,05,58,3.00
2018,11,12,05,59,3.00
2018,11,12,06,00,3.00
2018,11,12,06,01,3.00
2018,11,12,06,02,3.00
2018,11,12,06,03,3.00
2018,11,12,06,04,3.00
2018,11,12,06,05,3.00
2018,11,12,06,06,3.00
2018,11,12,06,07,3.00
2018,11,12,06,08,3.00
2018,11,12,06,09,3.00
2018,11,12,06,10,3.00
2018,11,12,06,11,3.00
2018,11,12,06,12,3.10
2018,11,12,06,13,3.10
2018,11,12,06,14,3.10
2018,11,12,06,15,3.10
2018,11,12,06,16,3.10
2018,11,12,06,17,3.20
2018,11,12,06,18,3.20
2018,11,12,06,19,3.20
2018,11,12,06,20,3.20
2018,11,12,06,21,3.20
2018,11,12,06,22,3.20
2018,11,12,06,23,3.20
2018,11,12,06,24,3.20
2018,11,12,06,25,3.20
2018,11,12,06,26,3.20
2018,11,12,06,27,3.20
2018,11,12,06,28,3.20
2018,11,12,06,29,3.20
2018,11,12,06,30,3.20
2018,11,12,06,31,3.20
2018,11,12,06,32,3.20
2018,11,12,06,33,3.20
2018,11,12,06,34,3.20
2018,11,12,06,35,3.20
2018,11,12,06,36,3.20
2018,11,12,06,37,3.20
2018,11,12,06,38,3.20
2018,11,12,06,39,3.20
2018,11,12,06,40,3.20
2018,11,12,06,41,3.20
2018,11,12,06,42,3.20
2018,11,12,06,43,3.20
2018,11,12,06,44,3.20
2018,11,12,06,45,3.10
2018,11,12,06,46,3.10
2018,11,12,06,47,3.10
2018,11,12,06,48,3.10
2018,11,12,06,49,3.10
2018,11,12,06,50,3.10
2018,11,12,06,51,3.10
2018,11,12,06,52,3.10
2018,11,12,06,53,3.10
2018,11,12,06,54,3.10
2018,11,12,06,55,3.00
2018,11,12,06,56,3.00
2018,11,12,06,57,3.00
2018,11,12,06,58,3.00
2018,11,12,06,59,3.00
2018,11,12,07,00,2.90
2018,11,12,07,01,2.90
2018,11,12,07,02,2.90
2018,11,12,07,03,2.90
2018,11,12,07,04,2.90
2018,11,12,07,05,2.90
2018,11,12,07,06,2.90
2018,11,12,07,07,2.90
2018,11,12,07,08,2.90
2018,11,12,07,09,2.90
2018,11,12,07,10,2.90
2018,11,12,07,11,2.90
2018,11,12,07,12,2.90
2018,11,12,07,13,2.90
2018,11,12,07,14,2.90
2018,11,12,07,15,2.90
2018,11,12,07,16,2.90
2018,11,12,07,17,2.90
2018,11,12,07,18,2.90
2018,11,12,07,19,2.90
2018,11,12,07,20,2.90
2018,11,12,07,21,2.80
2018,11,12,07,22,2.80
2018,11,12,07,23,2.80
2018,11,12,07,24,2.80
2018,11,12,07,25,2.80
2018,11,12,07,26,2.80
2018,11,12,07,27,2.80
2018,11,12,07,28,2.80
2018,11,12,07,29,2.80
2018,11,12,07,30,2.80
2018,11,12,07,31,2.80
2018,11,12,07,32,2.90
2018,11,12,07,33,2.80
2018,11,12,07,34,2.80
2018,11,12,07,35,2.80
2018,11,12,07,36,2.80
2018,11,12,07,37,2.80
2018,11,12,07,38,2.80
2018,11,12,07,39,2.80
2018,11,12,07,40,2.80
2018,11,12,07,41,2.80
2018,11,12,07,42,2.80
2018,11,12,07,43,2.80
2018,11,12,07,44,2.80
2018,11,12,07,45,2.80
2018,11,12,07,46,2.80
2018,11,12,07,47,2.80
2018,11,12,07,48,2.80
2018,11,12,07,49,2.80
2018,11,12,07,50,2.80
2018,11,12,07,51,2.80
2018,11,12,07,52,2.80
2018,11,12,07,53,2.80
2018,11,12,07,54,2.80
2018,11,12,07,55,2.80
2018,11,12,07,56,2.80
2018,11,12,07,57,2.80
2018,11,12,07,58,2.80
2018,11,12,07,59,2.80
2018,11,12,08,00,2.90
2018,11,12,08,01,2.90
2018,11,12,08,02,2.90
2018,11,12,08,03,3.00
2018,11,12,08,04,3.00
2018,11,12,08,05,3.10
2018,11,12,08,06,3.10
2018,11,12,08,07,3.10
2018,11,12,08,08,3.10
2018,11,12,08,09,3.10
2018,11,12,08,10,3.10
2018,11,12,08,11,3.10
2018,11,12,08,12,3.10
2018,11,12,08,13,3.10
2018,11,12,08,14,3.10
2018,11,12,08,15,3.10
2018,11,12,08,16,3.10
2018,11,12,08,17,3.10
2018,11,12,08,18,3.10
2018,11,12,08,19,3.10
2018,11,12,08,20,3.10
2018,11,12,08,21,3.20
2018,11,12,08,22,3.20
2018,11,12,08,23,3.20
2018,11,12,08,24,3.30
2018,11,12,08,25,3.40
2018,11,12,08,26,3.50
2018,11,12,08,27,3.50
2018,11,12,08,28,3.50
2018,11,12,08,29,3.60
2018,11,12,08,30,3.60
2018,11,12,08,31,3.60
2018,11,12,08,32,3.60
2018,11,12,08,33,3.70
2018,11,12,08,34,3.70
2018,11,12,08,35,3.70
2018,11,12,08,36,3.70
2018,11,12,08,37,3.70
2018,11,12,08,38,3.70
2018,11,12,08,39,3.70
2018,11,12,08,40,3.70
2018,11,12,08,41,3.70
2018,11,12,08,42,3.80
2018,11,12,08,43,3.80
2018,11,12,08,44,3.80
2018,11,12,08,45,3.90
2018,11,12,08,46,3.90
2018,11,12,08,47,3.90
2018,11,12,08,48,4.00
2018,11,12,08,49,4.00
2018,11,12,08,50,4.00
2018,11,12,08,51,4.00
2018,11,12,08,52,4.10
2018,11,12,08,53,4.10
2018,11,12,08,54,4.10
2018,11,12,08,55,4.20
2018,11,12,08,56,4.20
2018,11,12,08,57,4.30
2018,11,12,08,58,4.30
2018,11,12,08,59,4.40
2018,11,12,09,00,4.40
2018,11,12,09,01,4.50
2018,11,12,09,02,4.50
2018,11,12,09,03,4.50
2018,11,12,09,04,4.60
2018,11,12,09,05,4.60
2018,11,12,09,06,4.70
2018,11,12,09,07,4.80
2018,11,12,09,08,4.80
2018,11,12,09,09,4.90
2018,11,12,09,10,5.00
2018,11,12,09,11,5.10
2018,11,12,09,12,5.20
2018,11,12,09,13,5.20
2018,11,12,09,14,5.30
2018,11,12,09,15,5.40
2018,11,12,09,16,5.50
2018,11,12,09,17,5.60
2018,11,12,09,18,5.70
2018,11,12,09,19,5.70
2018,11,12,09,20,5.80
2018,11,12,09,21,5.90
2018,11,12,09,22,5.90
2018,11,12,09,23,6.00
2018,11,12,09,24,6.10
2018,11,12,09,25,6.20
2018,11,12,09,26,6.30
2018,11,12,09,27,6.40
2018,11,12,09,28,6.50
2018,11,12,09,29,6.60
2018,11,12,09,30,6.70
2018,11,12,09,31,6.70
2018,11,12,09,32,6.80
2018,11,12,09,33,6.80
2018,11,12,09,34,6.90
2018,11,12,09,35,6.90
2018,11,12,09,36,7.00
2018,11,12,09,37,7.00
2018,11,12,09,38,7.10
2018,11,12,09,39,7.20
2018,11,12,09,40,7.20
2018,11,12,09,41,7.30
2018,11,12,09,42,7.30
2018,11,12,09,43,7.30
2018,11,12,09,44,7.30
2018,11,12,09,45,7.30
2018,11,12,09,46,7.30
2018,11,12,09,47,7.30
2018,11,12,09,48,7.30
2018,11,12,09,49,7.30
2018,11,12,09,50,7.30
2018,11,12,09,51,7.40
2018,11,12,09,52,7.40
2018,11,12,09,53,7.40
2018,11,12,09,54,7.50
2018,11,12,09,55,7.50
2018,11,12,09,56,7.60
2018,11,12,09,57,7.60
2018,11,12,09,58,7.70
2018,11,12,09,59,7.80
2018,11,12,10,00,7.80
2018,11,12,10,01,7.90
2018,11,12,10,02,8.00
2018,11,12,10,03,8.00
2018,11,12,10,04,8.10
2018,11,12,10,05,8.20
2018,11,12,10,06,8.20
2018,11,12,10,07,8.30
2018,11,12,10,08,8.40
2018,11,12,10,09,8.40
2018,11,12,10,10,8.50
2018,11,12,10,11,8.50
2018,11,12,10,12,8.60
2018,11,12,10,13,8.60
2018,11,12,10,14,8.60
2018,11,12,10,15,8.60
2018,11,12,10,16,8.60
2018,11,12,10,17,8.60
2018,11,12,10,18,8.60
2018,11,12,10,19,8.60
2018,11,12,10,20,8.60
2018,11,12,10,21,8.50
2018,11,12,10,22,8.50
2018,11,12,10,23,8.40
2018,11,12,10,24,8.40
2018,11,12,10,25,8.30
2018,11,12,10,26,8.30
2018,11,12,10,27,8.30
2018,11,12,10,28,8.30
2018,11,12,10,29,8.30
2018,11,12,10,30,8.30
2018,11,12,10,31,8.30
2018,11,12,10,32,8.30
2018,11,12,10,33,8.30
2018,11,12,10,34,8.40
2018,11,12,10,35,8.40
2018,11,12,10,36,8.40
2018,11,12,10,37,8.50
2018,11,12,10,38,8.50
2018,11,12,10,39,8.60
2018,11,12,10,40,8.60
2018,11,12,10,41,8.70
2018,11,12,10,42,8.70
2018,11,12,10,43,8.80
2018,11,12,10,44,8.80
2018,11,12,10,45,8.80
2018,11,12,10,46,8.90
2018,11,12,10,47,8.90
2018,11,12,10,48,8.90
2018,11,12,10,49,8.90
2018,11,12,10,50,8.90
2018,11,12,10,51,8.90
2018,11,12,10,52,8.90
2018,11,12,10,53,8.90
2018,11,12,10,54,8.90
2018,11,12,10,55,8.90
2018,11,12,10,56,8.90
2018,11,12,10,57,8.90
2018,11,12,10,58,8.90
2018,11,12,10,59,8.90
2018,11,12,11,00,8.90
2018,11,12,11,01,8.90
2018,11,12,11,02,8.90
2018,11,12,11,03,8.90
2018,11,12,11,04,8.90
2018,11,12,11,05,8.90
2018,11,12,11,06,9.00
2018,11,12,11,07,9.00
2018,11,12,11,08,9.00
2018,11,12,11,09,8.90
2018,11,12,11,10,8.90
2018,11,12,11,11,8.90
2018,11,12,11,12,8.90
2018,11,12,11,13,8.80
2018,11,12,11,14,8.80
2018,11,12,11,15,8.80
2018,11,12,11,16,8.80
2018,11,12,11,17,8.80
2018,11,12,11,18,8.80
2018,11,12,11,19,8.80
2018,11,12,11,20,8.80
2018,11,12,11,21,8.80
2018,11,12,11,22,8.80
2018,11,12,11,23,8.70
2018,11,12,11,24,8.70
2018,11,12,11,25,8.70
2018,11,12,11,26,8.70
2018,11,12,11,27,8.70
2018,11,12,11,28,8.70
2018,11,12,11,29,8.70
2018,11,12,11,30,8.70
2018,11,12,11,31,8.60
2018,11,12,11,32,8.70
2018,11,12,11,33,8.60
2018,11,12,11,34,8.60
2018,11,12,11,35,8.60
2018,11,12,11,36,8.60
2018,11,12,11,37,8.60
2018,11,12,11,38,8.60
2018,11,12,11,39,8.60
2018,11,12,11,40,8.60
2018,11,12,11,41,8.70
2018,11,12,11,42,8.70
2018,11,12,11,43,8.70
2018,11,12,11,44,8.70
2018,11,12,11,45,8.70
2018,11,12,11,46,8.70
2018,11,12,11,47,8.80
2018,11,12,11,48,8.80
2018,11,12,11,49,8.80
2018,11,12,11,50,8.80
2018,11,12,11,51,8.80
2018,11,12,11,52,8.80
2018,11,12,11,53,8.80
2018,11,12,11,54,8.70
2018,11,12,11,55,8.70
2018,11,12,11,56,8.60
2018,11,12,11,57,8.60
2018,11,12,11,58,8.70
2018,11,12,11,59,8.70
2018,11,12,12,00,8.60
2018,11,12,12,01,8.60
2018,11,12,12,02,8.60
2018,11,12,12,03,8.60
2018,11,12,12,04,8.70
2018,11,12,12,05,8.70
2018,11,12,12,06,8.80
2018,11,12,12,07,8.80
2018,11,12,12,08,8.90
2018,11,12,12,09,9.00
2018,11,12,12,10,9.00
2018,11,12,12,11,9.10
2018,11,12,12,12,9.20
2018,11,12,12,13,9.20
2018,11,12,12,14,9.20
2018,11,12,12,15,9.30
2018,11,12,12,16,9.40
2018,11,12,12,17,9.40
2018,11,12,12,18,9.50
2018,11,12,12,19,9.50
2018,11,12,12,20,9.60
2018,11,12,12,21,9.60
2018,11,12,12,22,9.60
2018,11,12,12,23,9.70
2018,11,12,12,24,9.70
2018,11,12,12,25,9.70
2018,11,12,12,26,9.80
2018,11,12,12,27,9.80
2018,11,12,12,28,9.80
2018,11,12,12,29,9.80
2018,11,12,12,30,9.90
2018,11,12,12,31,9.90
2018,11,12,12,32,9.90
2018,11,12,12,33,9.90
2018,11,12,12,34,9.90
2018,11,12,12,35,10.00
2018,11,12,12,36,10.00
2018,11,12,12,37,10.00
2018,11,12,12,38,10.00
2018,11,12,12,39,10.10
2018,11,12,12,40,10.10
2018,11,12,12,41,10.10
2018,11,12,12,42,10.10
2018,11,12,12,43,10.20
2018,11,12,12,44,10.20
2018,11,12,12,45,10.20
2018,11,12,12,46,10.20
2018,11,12,12,47,10.30
2018,11,12,12,48,10.30
2018,11,12,12,49,10.30
2018,11,12,12,50,10.40
2018,11,12,12,51,10.40
2018,11,12,12,52,10.40
2018,11,12,12,53,10.40
2018,11,12,12,54,10.40
2018,11,12,12,55,10.40
2018,11,12,12,56,10.40
2018,11,12,12,57,10.40
2018,11,12,12,58,10.40
2018,11,12,12,59,10.50
2018,11,12,13,00,10.50
2018,11,12,13,01,10.40
2018,11,12,13,02,10.40
2018,11,12,13,03,10.40
2018,11,12,13,04,10.40
2018,11,12,13,05,10.40
2018,11,12,13,06,10.40
2018,11,12,13,07,10.40
2018,11,12,13,08,10.40
2018,11,12,13,09,10.40
2018,11,12,13,10,10.40
2018,11,12,13,11,10.40
2018,11,12,13,12,10.40
2018,11,12,13,13,10.40
2018,11,12,13,14,10.30
2018,11,12,13,15,10.30
2018,11,12,13,16,10.30
2018,11,12,13,17,10.20
2018,11,12,13,18,10.20
2018,11,12,13,19,10.20
2018,11,12,13,20,10.20
2018,11,12,13,21,10.20
2018,11,12,13,22,10.20
2018,11,12,13,23,10.20
2018,11,12,13,24,10.30
2018,11,12,13,25,10.30
2018,11,12,13,26,10.30
2018,11,12,13,27,10.30
2018,11,12,13,28,10.30
2018,11,12,13,29,10.30
2018,11,12,13,30,10.30
2018,11,12,13,31,10.30
2018,11,12,13,32,10.30
2018,11,12,13,33,10.20
2018,11,12,13,34,10.20
2018,11,12,13,35,10.20
2018,11,12,13,36,10.10
2018,11,12,13,37,10.10
2018,11,12,13,38,10.20
2018,11,12,13,39,10.20
2018,11,12,13,40,10.20
2018,11,12,13,41,10.20
2018,11,12,13,42,10.20
2018,11,12,13,43,10.30
2018,11,12,13,44,10.30
2018,11,12,13,45,10.30
2018,11,12,13,46,10.40
2018,11,12,13,47,10.50
2018,11,12,13,48,10.50
2018,11,12,13,49,10.60
2018,11,12,13,50,10.70
2018,11,12,13,51,10.70
2018,11,12,13,52,10.70
2018,11,12,13,53,10.80
2018,11,12,13,54,10.80
2018,11,12,13,55,10.80
2018,11,12,13,56,10.90
2018,11,12,13,57,10.90
2018,11,12,13,58,11.00
2018,11,12,13,59,11.00
2018,11,12,14,00,11.10
2018,11,12,14,01,11.10
2018,11,12,14,02,11.10
2018,11,12,14,03,11.10
2018,11,12,14,04,11.10
2018,11,12,14,05,11.10
2018,11,12,14,06,11.20
2018,11,12,14,07,11.20
2018,11,12,14,08,11.20
2018,11,12,14,09,11.30
2018,11,12,14,10,11.30
2018,11,12,14,11,11.30
2018,11,12,14,12,11.20
2018,11,12,14,13,11.20
2018,11,12,14,14,11.20
2018,11,12,14,15,11.30
2018,11,12,14,16,11.30
2018,11,12,14,17,11.40
2018,11,12,14,18,11.40
2018,11,12,14,19,11.40
2018,11,12,14,20,11.40
2018,11,12,14,21,11.40
2018,11,12,14,22,11.40
2018,11,12,14,23,11.40
2018,11,12,14,24,11.40
2018,11,12,14,25,11.30
2018,11,12,14,26,11.30
2018,11,12,14,27,11.30
2018,11,12,14,28,11.30
2018,11,12,14,29,11.30
2018,11,12,14,30,11.30
2018,11,12,14,31,11.20
2018,11,12,14,32,11.20
2018,11,12,14,33,11.20
2018,11,12,14,34,11.20
2018,11,12,14,35,11.10
2018,11,12,14,36,11.10
2018,11,12,14,37,11.10
2018,11,12,14,38,11.10
2018,11,12,14,39,11.10
2018,11,12,14,40,11.10
2018,11,12,14,41,11.00
2018,11,12,14,42,11.00
2018,11,12,14,43,11.00
2018,11,12,14,44,11.00
2018,11,12,14,45,11.00
2018,11,12,14,46,10.90
2018,11,12,14,47,10.90
2018,11,12,14,48,10.90
2018,11,12,14,49,10.90
2018,11,12,14,50,10.90
2018,11,12,14,51,10.80
2018,11,12,14,52,10.80
2018,11,12,14,53,10.70
2018,11,12,14,54,10.60
2018,11,12,14,55,10.60
2018,11,12,14,56,10.50
2018,11,12,14,57,10.50
2018,11,12,14,58,10.50
2018,11,12,14,59,10.40
2018,11,12,15,00,10.30
2018,11,12,15,01,10.20
2018,11,12,15,02,10.10
2018,11,12,15,03,10.00
2018,11,12,15,04,9.90
2018,11,12,15,05,9.80
2018,11,12,15,06,9.80
2018,11,12,15,07,9.80
2018,11,12,15,08,9.80
2018,11,12,15,09,9.70
2018,11,12,15,10,9.70
2018,11,12,15,11,9.70
2018,11,12,15,12,9.60
2018,11,12,15,13,9.60
2018,11,12,15,14,9.50
2018,11,12,15,15,9.50
2018,11,12,15,16,9.40
2018,11,12,15,17,9.40
2018,11,12,15,18,9.40
2018,11,12,15,19,9.30
2018,11,12,15,20,9.30
2018,11,12,15,21,9.20
2018,11,12,15,22,9.20
2018,11,12,15,23,9.10
2018,11,12,15,24,9.10
2018,11,12,15,25,9.00
2018,11,12,15,26,9.00
2018,11,12,15,27,8.90
2018,11,12,15,28,8.90
2018,11,12,15,29,8.90
2018,11,12,15,30,8.80
2018,11,12,15,31,8.80
2018,11,12,15,32,8.70
2018,11,12,15,33,8.70
2018,11,12,15,34,8.70
2018,11,12,15,35,8.60
2018,11,12,15,36,8.60
2018,11,12,15,37,8.60
2018,11,12,15,38,8.50
2018,11,12,15,39,8.50
2018,11,12,15,40,8.40
2018,11,12,15,41,8.40
2018,11,12,15,42,8.40
2018,11,12,15,43,8.30
2018,11,12,15,44,8.30
2018,11,12,15,45,8.30
2018,11,12,15,46,8.20
2018,11,12,15,47,8.20
2018,11,12,15,48,8.10
2018,11,12,15,49,8.00
2018,11,12,15,50,8.00
2018,11,12,15,51,7.90
2018,11,12,15,52,7.90
2018,11,12,15,53,7.80
2018,11,12,15,54,7.80
2018,11,12,15,55,7.80
2018,11,12,15,56,7.80
2018,11,12,15,57,7.70
2018,11,12,15,58,7.70
2018,11,12,15,59,7.70
2018,11,12,16,00,7.60
2018,11,12,16,01,7.60
2018,11,12,16,02,7.60
2018,11,12,16,03,7.50
2018,11,12,16,04,7.50
2018,11,12,16,05,7.50
2018,11,12,16,06,7.40
2018,11,12,16,07,7.40
2018,11,12,16,08,7.40
2018,11,12,16,09,7.30
2018,11,12,16,10,7.30
2018,11,12,16,11,7.30
2018,11,12,16,12,7.30
2018,11,12,16,13,7.30
2018,11,12,16,14,7.30
2018,11,12,16,15,7.20
2018,11,12,16,16,7.20
2018,11,12,16,17,7.20
2018,11,12,16,18,7.10
2018,11,12,16,19,7.10
2018,11,12,16,20,7.00
2018,11,12,16,21,7.00
2018,11,12,16,22,6.90
2018,11,12,16,23,6.90
2018,11,12,16,24,6.80
2018,11,12,16,25,6.80
2018,11,12,16,26,6.80
2018,11,12,16,27,6.70
2018,11,12,16,28,6.70
2018,11,12,16,29,6.70
2018,11,12,16,30,6.70
2018,11,12,16,31,6.60
2018,11,12,16,32,6.60
2018,11,12,16,33,6.60
2018,11,12,16,34,6.60
2018,11,12,16,35,6.50
2018,11,12,16,36,6.50
2018,11,12,16,37,6.40
2018,11,12,16,38,6.40
2018,11,12,16,39,6.40
2018,11,12,16,40,6.30
2018,11,12,16,41,6.30
2018,11,12,16,42,6.30
2018,11,12,16,43,6.20
2018,11,12,16,44,6.20
2018,11,12,16,45,6.20
2018,11,12,16,46,6.20
2018,11,12,16,47,6.20
2018,11,12,16,48,6.10
2018,11,12,16,49,6.10
2018,11,12,16,50,6.10
2018,11,12,16,51,6.10
2018,11,12,16,52,6.10
2018,11,12,16,53,6.10
2018,11,12,16,54,6.10
2018,11,12,16,55,6.10
2018,11,12,16,56,6.00
2018,11,12,16,57,6.00
2018,11,12,16,58,5.90
2018,11,12,16,59,5.90
2018,11,12,17,00,5.90
2018,11,12,17,01,5.90
2018,11,12,17,02,5.90
2018,11,12,17,03,5.80
2018,11,12,17,04,5.80
2018,11,12,17,05,5.80
2018,11,12,17,06,5.80
2018,11,12,17,07,5.80
2018,11,12,17,08,5.70
2018,11,12,17,09,5.70
2018,11,12,17,10,5.70
2018,11,12,17,11,5.60
2018,11,12,17,12,5.60
2018,11,12,17,13,5.60
2018,11,12,17,14,5.60
2018,11,12,17,15,5.50
2018,11,12,17,16,5.50
2018,11,12,17,17,5.40
2018,11,12,17,18,5.40
2018,11,12,17,19,5.40
2018,11,12,17,20,5.40
2018,11,12,17,21,5.40
2018,11,12,17,22,5.40
2018,11,12,17,23,5.40
2018,11,12,17,24,5.40
2018,11,12,17,25,5.40
2018,11,12,17,26,5.40
2018,11,12,17,27,5.40
2018,11,12,17,28,5.30
2018,11,12,17,29,5.30
2018,11,12,17,30,5.30
2018,11,12,17,31,5.30
2018,11,12,17,32,5.30
2018,11,12,17,33,5.30
2018,11,12,17,34,5.30
2018,11,12,17,35,5.30
2018,11,12,17,36,5.20
2018,11,12,17,37,5.20
2018,11,12,17,38,5.20
2018,11,12,17,39,5.20
2018,11,12,17,40,5.20
2018,11,12,17,41,5.20
2018,11,12,17,42,5.10
2018,11,12,17,43,5.10
2018,11,12,17,44,5.10
2018,11,12,17,45,5.10
2018,11,12,17,46,5.00
2018,11,12,17,47,5.00
2018,11,12,17,48,5.00
2018,11,12,17,49,5.00
2018,11,12,17,50,4.90
2018,11,12,17,51,4.90
2018,11,12,17,52,4.90
2018,11,12,17,53,4.90
2018,11,12,17,54,4.90
2018,11,12,17,55,4.90
2018,11,12,17,56,4.90
2018,11,12,17,57,4.90
2018,11,12,17,58,4.80
2018,11,12,17,59,4.80